DW2770 Weather Reports


time (UTC)temp
F
wind
direction
speed
knots
gust
knots
rain 1hr
in
rain 24hr
in
rain mn
in
humidity
%
barometer
mb
20210518211102 60 158 1.7 2.6 0.00 0.00 0.00 76 1017.7
20210518210556 61 180 0.0 0.9 0.00 0.00 0.00 76 1017.6
20210518210056 60 180 0.9 0.9 0.00 0.00 0.00 76 1017.8
20210518205556 60 203 0.0 3.5 0.00 0.00 0.00 76 1017.8
20210518205056 60 203 1.7 3.5 0.00 0.00 0.00 76 1017.7
20210518204556 60 180 3.5 3.5 0.00 0.00 0.00 77 1017.8
20210518204056 60 158 1.7 1.7 0.00 0.00 0.00 77 1017.8
20210518203556 60 180 1.7 1.7 0.00 0.00 0.00 77 1017.8
20210518203102 60 180 1.7 1.7 0.00 0.00 0.00 77 1018.0
20210518202556 60 180 1.7 2.6 0.00 0.00 0.00 77 1017.9
20210518202059 60 180 2.6 2.6 0.00 0.00 0.00 76 1017.8
20210518201559 60 180 0.9 1.7 0.00 0.00 0.00 76 1017.9
20210518201056 60 135 0.0 1.7 0.00 0.00 0.00 76 1017.9
20210518200602 60 158 0.0 0.0 0.00 0.00 0.00 76 1017.9
20210518200056 61 135 0.0 0.0 0.00 0.00 0.00 76 1017.8
20210518195559 61 135 0.0 0.0 0.00 0.00 0.00 76 1017.8
20210518195056 61 113 0.0 0.0 0.00 0.00 0.00 76 1017.7
20210518194556 61 135 0.0 0.0 0.00 0.00 0.00 76 1017.6
20210518194059 61 203 0.9 0.9 0.00 0.00 0.00 76 1017.6
20210518193556 61 158 0.9 0.9 0.00 0.00 0.00 76 1017.6
20210518193059 61 158 0.9 2.6 0.00 0.00 0.00 75 1017.5
20210518192556 61 180 2.6 2.6 0.00 0.00 0.00 75 1017.5
20210518192056 62 135 0.0 0.0 0.00 0.00 0.00 75 1017.4
20210518191556 62 158 0.0 0.9 0.00 0.00 0.00 75 1017.4
20210518191059 62 180 0.9 0.9 0.00 0.00 0.00 75 1017.4
20210518190559 62 180 0.9 0.9 0.00 0.00 0.00 74 1017.2
20210518190056 62 180 0.0 0.9 0.00 0.00 0.00 74 1017.1
20210518185556 62 158 0.0 2.6 0.00 0.00 0.00 74 1017.1
20210518185059 62 180 2.6 2.6 0.00 0.00 0.00 74 1017.0
20210518184558 62 180 0.0 0.9 0.00 0.00 0.00 73 1017.1
20210518184056 62 135 0.0 0.0 0.00 0.00 0.00 73 1017.1
20210518183556 63 158 0.0 0.0 0.00 0.00 0.00 73 1017.1
20210518183056 63 180 0.0 0.0 0.00 0.00 0.00 72 1017.1
20210518182556 64 135 0.0 0.0 0.00 0.00 0.00 72 1017.0
20210518182056 64 158 0.0 0.0 0.00 0.00 0.00 73 1017.1
20210518181556 64 180 0.0 0.0 0.00 0.00 0.00 73 1017.2
20210518181059 64 68 0.0 0.0 0.00 0.00 0.00 72 1017.2
20210518180556 64 45 0.0 0.0 0.00 0.00 0.00 72 1017.3
20210518180056 64 45 0.0 1.7 0.00 0.00 0.00 72 1017.3
20210518175556 64 68 0.9 0.9 0.00 0.00 0.00 72 1017.4
20210518175056 64 68 0.9 1.7 0.00 0.00 0.00 71 1017.3
20210518173559 65 45 1.7 1.7 0.00 0.00 0.00 70 1017.5
20210518173055 66 45 1.7 1.7 0.00 0.00 0.00 71 1017.5
20210518172556 66 338 0.0 0.0 0.00 0.00 0.00 71 1017.5
20210518172056 66 270 0.0 0.9 0.00 0.00 0.00 71 1017.3
20210518171602 66 315 0.9 1.7 0.00 0.00 0.00 71 1017.5
20210518171056 66 45 0.0 0.9 0.00 0.00 0.00 71 1017.4
20210518170555 66 68 0.0 0.9 0.00 0.00 0.00 71 1017.4
20210518170057 66 0 0.0 0.0 0.00 0.00 0.00 71 1017.5
20210518165556 65 270 0.9 3.5 0.00 0.00 0.00 71 1017.3
20210518165055 65 68 3.5 3.5 0.00 0.00 0.00 71 1017.5
20210518164555 65 158 0.9 2.6 0.00 0.00 0.00 70 1017.5
20210518164056 65 68 2.6 4.3 0.00 0.00 0.00 70 1017.5
20210518163556 65 68 3.5 3.5 0.00 0.00 0.00 70 1017.5
20210518163055 65 68 3.5 3.5 0.00 0.00 0.00 69 1017.4
20210518162555 65 45 1.7 4.3 0.00 0.00 0.00 69 1017.4
20210518162055 66 68 2.6 3.5 0.00 0.00 0.00 67 1017.5
20210518161555 67 45 3.5 5.2 0.00 0.00 0.00 66 1017.4
20210518161056 68 90 2.6 2.6 0.00 0.00 0.00 65 1017.5
20210518160558 68 23 0.0 0.9 0.00 0.00 0.00 65 1017.4
20210518160055 69 158 0.9 0.9 0.00 0.00 0.00 64 1017.4
20210518155555 69 293 0.0 3.5 0.00 0.00 0.00 65 1017.6
20210518155059 69 203 3.5 3.5 0.00 0.00 0.00 65 1017.6
20210518154556 69 338 0.0 2.6 0.00 0.00 0.00 65 1017.6
20210518154056 68 293 2.6 2.6 0.00 0.00 0.00 65 1017.7
20210518153555 68 248 0.9 0.9 0.00 0.00 0.00 65 1017.8
20210518153059 68 293 0.9 2.6 0.00 0.00 0.00 65 1017.7
20210518152556 68 68 0.0 2.6 0.00 0.00 0.00 64 1017.7
20210518152055 69 180 2.6 2.6 0.00 0.00 0.00 64 1017.6
20210518151556 69 338 1.7 1.7 0.00 0.00 0.00 65 1017.6
20210518151059 69 135 0.9 1.7 0.00 0.00 0.00 65 1017.6
20210518150556 69 315 0.0 0.0 0.00 0.00 0.00 65 1017.7
20210518150055 69 45 0.0 1.7 0.00 0.00 0.00 64 1017.8
20210518145558 69 45 1.7 1.7 0.00 0.00 0.00 64 1018.0
20210518145055 69 270 0.9 1.7 0.00 0.00 0.00 64 1017.8
20210518144555 68 23 1.7 1.7 0.00 0.00 0.00 64 1017.8
20210518144055 69 45 0.9 1.7 0.00 0.00 0.00 62 1017.8
20210518143558 69 293 1.7 3.5 0.00 0.00 0.00 62 1017.7
20210518143055 70 203 0.9 2.6 0.00 0.00 0.00 61 1017.7
20210518142559 70 0 2.6 2.6 0.00 0.00 0.00 60 1017.7
20210518142058 70 315 1.7 1.7 0.00 0.00 0.00 58 1017.6
20210518141559 70 0 0.9 3.5 0.00 0.00 0.00 58 1017.7
20210518141055 70 180 5.2 5.2 0.00 0.00 0.00 57 1017.8
20210518140559 70 203 0.0 3.5 0.00 0.00 0.00 57 1017.9
20210518140056 70 248 0.9 0.9 0.00 0.00 0.00 57 1017.7
20210518135558 70 23 0.9 5.2 0.00 0.00 0.00 57 1017.9
20210518135055 70 45 0.0 1.7 0.00 0.00 0.00 56 1017.8
20210518134556 70 315 1.7 2.6 0.00 0.00 0.00 56 1017.9
20210518134056 70 293 2.6 2.6 0.00 0.00 0.00 55 1018.0
20210518133558 71 23 0.9 0.9 0.00 0.00 0.00 55 1018.1
20210518133056 70 225 0.0 3.5 0.00 0.00 0.00 54 1018.0
20210518132555 70 135 1.7 2.6 0.00 0.00 0.00 55 1018.2
20210518132055 70 203 0.9 6.1 0.00 0.00 0.00 56 1018.3
20210518131555 69 203 6.1 6.1 0.00 0.00 0.00 58 1018.3
20210518131055 69 68 1.7 3.5 0.00 0.00 0.00 58 1018.3
20210518130558 70 68 1.7 1.7 0.00 0.00 0.00 58 1018.3
20210518130056 69 23 0.9 2.6 0.00 0.00 0.00 58 1018.2
20210518125556 68 45 1.7 3.5 0.00 0.00 0.00 59 1018.2
20210518125056 68 45 3.5 4.3 0.00 0.00 0.00 59 1018.3
20210518124556 68 45 4.3 7.8 0.00 0.00 0.00 59 1018.2
20210518124055 68 68 6.1 6.1 0.00 0.00 0.00 57 1018.2
20210518123556 68 68 4.3 5.2 0.00 0.00 0.00 57 1018.0
20210518123056 68 68 5.2 6.1 0.00 0.00 0.00 56 1018.2
20210518122556 68 68 2.6 2.6 0.00 0.00 0.00 55 1018.2
20210518122056 68 158 0.0 5.2 0.00 0.00 0.00 54 1018.1
20210518121556 69 68 4.3 4.3 0.00 0.00 0.00 54 1018.3
20210518121056 68 23 7.0 7.0 0.00 0.00 0.00 54 1018.2
20210518120556 69 68 6.1 6.1 0.00 0.00 0.00 54 1018.1
20210518120056 69 68 1.7 3.5 0.00 0.00 0.00 54 1018.1
20210518115556 69 68 3.5 7.0 0.00 0.00 0.00 53 1018.2
20210518115056 71 45 3.5 5.2 0.00 0.00 0.00 52 1018.0
20210518114555 72 45 5.2 5.2 0.00 0.00 0.00 51 1018.2
20210518114055 71 293 0.9 0.9 0.00 0.00 0.00 48 1018.3
20210518113555 71 225 3.5 4.3 0.00 0.00 0.00 47 1018.2
20210518113056 71 248 3.5 3.5 0.00 0.00 0.00 52 1018.3
20210518112559 71 338 0.0 1.7 0.00 0.00 0.00 54 1018.3
20210518112055 71 23 0.9 2.6 0.00 0.00 0.00 54 1018.4
20210518111555 71 315 2.6 2.6 0.00 0.00 0.00 55 1018.6
20210518111056 70 315 1.7 3.5 0.00 0.00 0.00 55 1018.5
20210518110556 70 315 1.7 2.6 0.00 0.00 0.00 55 1018.7
20210518110059 69 315 2.6 2.6 0.00 0.00 0.00 59 1018.7
20210518105555 69 293 2.6 2.6 0.00 0.00 0.00 62 1018.6
20210518105055 69 270 1.7 1.7 0.00 0.00 0.00 67 1018.7
20210518104555 69 270 1.7 3.5 0.00 0.00 0.00 70 1018.8
20210518104059 69 203 3.5 3.5 0.00 0.00 0.00 70 1018.7
20210518103555 68 338 2.6 2.6 0.00 0.00 0.00 70 1018.8
20210518103055 68 203 1.7 3.5 0.00 0.00 0.00 70 1019.0
20210518102556 68 315 3.5 3.5 0.00 0.00 0.00 70 1019.0
20210518102055 68 293 0.9 1.7 0.00 0.00 0.00 70 1018.7
20210518101555 68 293 0.9 2.6 0.00 0.00 0.00 71 1018.7
20210518101059 68 315 2.6 2.6 0.00 0.00 0.00 72 1019.0
20210518100601 68 293 0.9 2.6 0.00 0.00 0.00 72 1018.8
20210518100055 68 270 2.6 2.6 0.00 0.00 0.00 73 1019.0
20210518095556 67 248 0.0 1.7 0.00 0.00 0.00 73 1018.8
20210518095056 67 315 1.7 2.6 0.00 0.00 0.00 74 1018.8
20210518094555 67 203 2.6 2.6 0.00 0.00 0.00 75 1018.7
20210518094101 66 248 0.9 0.9 0.00 0.00 0.00 75 1018.8
20210518093555 66 270 0.9 0.9 0.00 0.00 0.00 76 1018.6
20210518093055 66 180 0.9 1.7 0.00 0.00 0.00 76 1018.7
20210518092555 66 68 1.7 1.7 0.00 0.00 0.00 77 1018.8
20210518092056 66 45 0.9 2.6 0.00 0.00 0.00 78 1018.7
20210518091555 66 203 1.7 2.6 0.00 0.00 0.00 78 1018.7
20210518091056 66 0 0.0 0.9 0.00 0.00 0.00 78 1018.6
20210518090556 66 338 0.9 1.7 0.00 0.00 0.00 79 1018.4
20210518090056 66 248 0.9 0.9 0.00 0.00 0.00 79 1018.4
20210518085555 66 293 0.0 0.0 0.00 0.00 0.00 79 1018.3
20210518085055 66 180 0.0 2.6 0.00 0.00 0.00 79 1018.3
20210518084555 66 203 0.0 0.9 0.00 0.00 0.00 79 1017.9
20210518084056 65 203 0.9 3.5 0.00 0.00 0.00 79 1018.2
20210518083556 65 225 3.5 4.3 0.00 0.00 0.00 79 1017.9
20210518083056 65 293 4.3 4.3 0.00 0.00 0.00 79 1017.9
20210518082556 65 225 0.9 2.6 0.00 0.00 0.00 79 1017.9
20210518082056 65 180 0.9 3.5 0.00 0.00 0.00 79 1018.0
20210518081555 65 315 2.6 2.6 0.00 0.00 0.00 79 1018.0
20210518081056 65 225 3.5 3.5 0.00 0.00 0.00 79 1018.0
20210518080556 65 270 0.0 2.6 0.00 0.00 0.00 79 1018.1
20210518080055 65 293 1.7 1.7 0.00 0.00 0.00 79 1018.0
20210518075559 66 203 3.5 3.5 0.00 0.00 0.00 79 1018.1
20210518075055 66 180 3.5 3.5 0.00 0.00 0.00 79 1018.0
20210518074559 65 270 0.0 2.6 0.00 0.00 0.00 78 1018.0
20210518074055 65 225 7.0 7.0 0.00 0.00 0.00 78 1018.0
20210518073556 66 248 1.7 3.5 0.00 0.00 0.00 76 1018.0
20210518073059 66 270 0.9 1.7 0.00 0.00 0.00 75 1017.9
20210518072555 67 248 1.7 2.6 0.00 0.00 0.00 74 1017.9
20210518072055 68 225 1.7 4.3 0.00 0.00 0.00 73 1017.7
20210518071555 68 225 4.3 4.3 0.00 0.00 0.00 73 1017.6
20210518071055 69 68 0.0 0.0 0.00 0.00 0.00 72 1017.7
20210518070558 69 270 0.0 0.9 0.00 0.00 0.00 72 1017.6
20210518070056 69 113 0.0 1.7 0.00 0.00 0.00 72 1017.6
20210518065555 68 293 1.7 1.7 0.00 0.00 0.00 73 1017.4
20210518065055 68 68 0.0 0.0 0.00 0.00 0.00 74 1017.4
20210518064559 68 270 0.0 1.7 0.00 0.00 0.00 74 1017.3
20210518064101 67 270 0.0 2.6 0.00 0.00 0.00 74 1017.1
20210518063555 67 270 0.0 0.9 0.00 0.00 0.00 74 1017.4
20210518063059 67 315 0.9 2.6 0.00 0.00 0.00 75 1017.3
20210518062556 67 180 0.0 0.9 0.00 0.00 0.00 75 1017.2
20210518062058 67 225 0.9 0.9 0.00 0.00 0.00 75 1017.2
20210518061558 66 315 0.9 1.7 0.00 0.00 0.00 75 1017.4
20210518061058 66 293 1.7 1.7 0.00 0.00 0.00 75 1017.3
20210518060601 66 225 0.0 1.7 0.00 0.00 0.00 75 1017.2
20210518060056 66 338 0.9 2.6 0.00 0.00 0.00 75 1017.3
20210518055555 66 248 0.9 3.5 0.00 0.00 0.00 76 1017.5
20210518055055 66 225 3.5 3.5 0.00 0.00 0.00 76 1017.4
20210518054558 66 225 0.0 1.7 0.00 0.00 0.00 76 1017.4
20210518054055 66 203 0.9 4.3 0.00 0.00 0.00 76 1017.4
20210518053558 66 225 4.3 4.3 0.00 0.00 0.00 76 1017.4
20210518053055 65 248 1.7 3.5 0.00 0.00 0.00 76 1017.5
20210518052555 65 180 1.7 1.7 0.00 0.00 0.00 76 1017.4
20210518052056 65 293 0.9 1.7 0.00 0.00 0.00 76 1017.2
20210518051558 65 158 0.0 1.7 0.00 0.00 0.00 75 1017.1
20210518051056 65 180 0.9 0.9 0.00 0.00 0.00 75 1017.2
20210518050558 65 203 0.9 1.7 0.00 0.00 0.00 75 1016.8
20210518050056 65 203 1.7 6.1 0.00 0.00 0.00 74 1016.9
20210518045558 65 225 2.6 3.5 0.00 0.00 0.00 72 1017.0
20210518045055 65 158 1.7 1.7 0.00 0.00 0.00 70 1016.9
20210518044558 65 203 0.9 1.7 0.00 0.00 0.00 68 1017.0
20210518044055 64 225 3.5 3.5 0.00 0.00 0.00 66 1016.9
20210518043555 64 225 2.6 2.6 0.00 0.00 0.00 63 1016.6
20210518043056 64 293 0.0 1.7 0.00 0.00 0.00 61 1016.7
20210518042558 64 270 0.9 1.7 0.00 0.00 0.00 60 1016.4
20210518042056 64 293 1.7 3.5 0.00 0.00 0.00 59 1016.4
20210518041556 64 203 3.5 3.5 0.00 0.00 0.00 58 1016.3
20210518041059 64 180 1.7 1.7 0.00 0.00 0.00 57 1016.2
20210518040555 64 180 1.7 1.7 0.00 0.00 0.00 57 1016.2
20210518040058 64 180 1.7 1.7 0.00 0.00 0.00 58 1016.1
20210518035555 64 68 0.0 0.0 0.00 0.00 0.00 59 1016.2
20210518035059 64 158 0.0 0.9 0.00 0.00 0.00 59 1016.1
20210518034559 64 113 0.0 1.7 0.00 0.00 0.00 59 1016.0
20210518034055 64 135 0.0 3.5 0.00 0.00 0.00 59 1015.9
20210518033556 64 135 0.9 1.7 0.00 0.00 0.00 59 1015.9
20210518033058 63 158 1.7 2.6 0.00 0.00 0.00 60 1015.8
20210518032556 63 180 0.0 0.0 0.00 0.00 0.00 61 1015.6
20210518032056 64 158 0.0 1.7 0.00 0.00 0.00 61 1015.9
20210518031558 63 135 0.0 4.3 0.00 0.00 0.00 60 1015.8
20210518031056 63 180 4.3 4.3 0.00 0.00 0.00 60 1015.9
20210518030555 64 180 1.7 1.7 0.00 0.00 0.00 59 1015.9
20210518030055 64 113 0.0 3.5 0.00 0.00 0.00 60 1015.7
20210518025555 64 180 1.7 1.7 0.00 0.00 0.00 61 1015.7
20210518025058 64 180 1.7 1.7 0.00 0.00 0.00 61 1015.8
20210518024556 64 203 1.7 1.7 0.00 0.00 0.00 62 1015.9
20210518024059 64 203 0.0 0.9 0.00 0.00 0.00 62 1015.8
20210518023559 64 180 0.9 0.9 0.00 0.00 0.00 61 1015.7
20210518023056 64 180 0.9 0.9 0.00 0.00 0.00 61 1015.6
20210518022555 64 180 0.0 3.5 0.00 0.00 0.00 61 1015.7
20210518022058 64 180 3.5 3.5 0.00 0.00 0.00 61 1015.6
20210518021555 64 158 1.7 2.6 0.00 0.00 0.00 61 1015.7
20210518021059 64 180 1.7 1.7 0.00 0.00 0.00 62 1015.6
20210518020555 64 135 1.7 2.6 0.00 0.00 0.00 63 1015.5
20210518020056 63 180 2.6 3.5 0.00 0.00 0.00 64 1015.5
20210518015555 63 180 3.5 3.5 0.00 0.00 0.00 65 1015.4
20210518015058 63 203 0.9 1.7 0.00 0.00 0.00 68 1015.3
20210518014556 63 158 1.7 1.7 0.00 0.00 0.00 68 1015.3
20210518014056 64 45 0.0 0.0 0.00 0.00 0.00 68 1015.3
20210518013556 64 113 0.0 1.7 0.00 0.00 0.00 68 1015.5
20210518013058 64 180 1.7 1.7 0.00 0.00 0.00 69 1015.4
20210518012555 64 225 1.7 1.7 0.00 0.00 0.00 71 1015.2
20210518012055 64 203 0.9 0.9 0.00 0.00 0.00 71 1015.2
20210518011558 64 180 0.9 2.6 0.00 0.00 0.00 72 1015.3
20210518011055 64 180 2.6 2.6 0.00 0.00 0.00 72 1015.2
20210518010555 64 158 0.0 0.0 0.00 0.00 0.00 74 1015.3
20210518010059 64 180 0.0 1.7 0.00 0.00 0.00 74 1015.2
20210518005555 63 180 1.7 1.7 0.00 0.00 0.00 74 1015.3
20210518005058 64 203 0.0 0.0 0.00 0.00 0.00 74 1015.3
20210518004555 64 225 0.0 0.0 0.00 0.00 0.00 74 1015.3
20210518004055 64 135 0.0 0.0 0.00 0.00 0.00 74 1015.2
20210518003555 64 180 0.0 0.0 0.00 0.00 0.00 74 1015.2
20210518003055 64 180 0.0 0.0 0.00 0.00 0.00 74 1015.4
20210518002558 64 180 0.0 0.9 0.00 0.00 0.00 74 1015.4
20210518002055 64 180 0.9 0.9 0.00 0.00 0.00 74 1015.5
20210518001558 64 180 0.0 0.9 0.00 0.00 0.00 75 1015.5
20210518001058 64 180 0.9 0.9 0.00 0.00 0.00 75 1015.5
20210518000555 64 180 0.0 0.9 0.00 0.00 0.00 75 1015.7
20210518000101 64 180 0.9 0.9 0.00 0.00 0.00 75 1015.5
20210517235555 64 180 0.0 0.0 0.00 0.00 0.00 75 1015.7
20210517235055 65 180 0.0 1.7 0.00 0.00 0.00 75 1015.6
20210517234555 65 180 1.7 1.7 0.00 0.00 0.00 75 1015.7
20210517234055 65 180 0.9 0.9 0.00 0.00 0.00 74 1015.6
20210517233556 65 203 0.0 0.9 0.00 0.00 0.00 74 1015.6
20210517233055 65 203 0.9 0.9 0.00 0.00 0.00 74 1015.5
20210517232555 65 203 0.9 1.7 0.00 0.00 0.00 74 1015.4
20210517232101 65 203 0.9 2.6 0.00 0.00 0.00 74 1015.4
20210517231555 65 180 2.6 2.6 0.00 0.00 0.00 74 1015.6
20210517231055 65 203 1.7 1.7 0.00 0.00 0.00 74 1015.7
20210517230555 65 203 1.7 2.6 0.00 0.00 0.00 72 1015.7
20210517230058 65 225 1.7 1.7 0.00 0.00 0.00 70 1015.5
20210517225555 65 180 1.7 1.7 0.00 0.00 0.00 69 1015.6
20210517225055 65 225 1.7 1.7 0.00 0.00 0.00 69 1015.5
20210517224555 65 180 1.7 1.7 0.00 0.00 0.00 70 1015.4
20210517224055 65 180 0.0 0.0 0.00 0.00 0.00 70 1015.4
20210517223555 65 203 0.0 0.0 0.00 0.00 0.00 70 1015.4
20210517223058 65 113 0.0 2.6 0.00 0.00 0.00 70 1015.4
20210517222558 65 203 2.6 2.6 0.00 0.00 0.00 71 1015.1
20210517222055 65 180 0.0 0.0 0.00 0.00 0.00 74 1015.4
20210517221556 65 180 0.0 1.7 0.00 0.00 0.00 74 1015.3
20210517221055 65 180 0.0 0.9 0.00 0.00 0.00 76 1015.4
20210517220600 65 180 0.0 1.7 0.00 0.00 0.00 76 1015.4
20210517220055 65 203 1.7 1.7 0.00 0.00 0.00 76 1015.4
20210517215555 65 203 1.7 1.7 0.00 0.00 0.00 76 1015.5
20210517215055 65 203 0.9 0.9 0.00 0.00 0.00 76 1015.5
20210517214558 65 180 1.7 1.7 0.00 0.00 0.00 76 1015.5
20210517214055 65 180 0.0 0.0 0.00 0.00 0.00 76 1015.3
20210517213555 65 203 0.0 0.9 0.00 0.00 0.00 76 1015.4
20210517213055 65 180 0.9 1.7 0.00 0.00 0.00 76 1015.3
20210517212558 65 203 1.7 1.7 0.00 0.00 0.00 76 1015.3
20210517212055 65 225 0.9 1.7 0.00 0.00 0.00 76 1015.4
20210517211559 65 203 0.9 2.6 0.00 0.00 0.00 76 1015.3